• In Belgium
  • List of Countries
  • For 7 days
  • Water Temperature
  • Satellite Maps
  • Weather Map
  • Weather Widgets
  • user-avatar
    Login

    Hourly Weather Korfu

    Today, 25 September, Tuesday

    Time Temperature Precipitation Wind Pressure Humidity
    00:00 +24°C° 0 mm 3 mps 758 mmHg 88%
    01:00 +23°C° 0 mm 4 mps 759 mmHg 88%
    02:00 +22°C° 0 mm 5 mps 759 mmHg 85%
    03:00 +22°C° 0 mm 6 mps 759 mmHg 82%
    04:00 +22°C° 0 mm 6 mps 759 mmHg 79%
    05:00 +22°C° 0 mm 7 mps 760 mmHg 71%
    06:00 +22°C° 0 mm 7 mps 760 mmHg 64%
    07:00 +22°C° 0 mm 7 mps 760 mmHg 56%
    08:00 +24°C° 0 mm 7 mps 760 mmHg 50%
    09:00 +27°C° 0 mm 7 mps 761 mmHg 43%
    10:00 +28°C° 0 mm 7 mps 761 mmHg 37%
    11:00 +29°C° 0 mm 7 mps 761 mmHg 35%
    12:00 +30°C° 0 mm 7 mps 761 mmHg 34%
    13:00 +32°C° 0 mm 8 mps 761 mmHg 32%
    14:00 +31°C° 0 mm 8 mps 761 mmHg 33%
    15:00 +31°C° 0 mm 8 mps 761 mmHg 33%
    16:00 +29°C° 0 mm 9 mps 760 mmHg 34%
    17:00 +27°C° 0 mm 8 mps 761 mmHg 35%
    18:00 +24°C° 0 mm 8 mps 761 mmHg 36%
    19:00 +22°C° 0 mm 8 mps 762 mmHg 37%
    20:00 +21°C° 0 mm 7 mps 762 mmHg 35%
    21:00 +20°C° 0 mm 6 mps 762 mmHg 33%
    22:00 +19°C° 0 mm 6 mps 763 mmHg 31%
    23:00 +19°C° 0 mm 6 mps 763 mmHg 30%

    Tomorrow, 26 September, Wednesday

    Time Temperature Precipitation Wind Pressure Humidity
    00:00 +17°C° 0 mm 5 mps 763 mmHg 29%
    01:00 +17°C° 0 mm 5 mps 763 mmHg 28%
    02:00 +16°C° 0 mm 5 mps 764 mmHg 30%
    03:00 +16°C° 0 mm 5 mps 764 mmHg 32%
    04:00 +15°C° 0 mm 5 mps 764 mmHg 34%
    05:00 +15°C° 0 mm 5 mps 764 mmHg 35%
    06:00 +15°C° 0 mm 5 mps 764 mmHg 37%
    07:00 +15°C° 0 mm 5 mps 765 mmHg 39%
    08:00 +17°C° 0 mm 5 mps 765 mmHg 36%
    09:00 +19°C° 0 mm 5 mps 765 mmHg 33%
    10:00 +21°C° 0 mm 4 mps 766 mmHg 29%
    11:00 +22°C° 0 mm 4 mps 766 mmHg 28%
    12:00 +22°C° 0 mm 3 mps 765 mmHg 27%
    13:00 +24°C° 0 mm 3 mps 765 mmHg 25%
    14:00 +24°C° 0 mm 3 mps 765 mmHg 25%
    15:00 +22°C° 0 mm 4 mps 765 mmHg 25%
    16:00 +22°C° 0 mm 4 mps 765 mmHg 25%
    17:00 +20°C° 0 mm 5 mps 765 mmHg 27%
    18:00 +19°C° 0 mm 5 mps 766 mmHg 28%
    19:00 +16°C° 0 mm 6 mps 766 mmHg 30%
    20:00 +15°C° 0 mm 6 mps 767 mmHg 32%
    21:00 +15°C° 0 mm 6 mps 767 mmHg 34%
    22:00 +14°C° 0 mm 6 mps 767 mmHg 36%
    23:00 +13°C° 0 mm 6 mps 767 mmHg 37%

    Day after tomorrow, 27 September, Thursday

    Time Temperature Precipitation Wind Pressure Humidity
    00:00 +13°C° 0 mm 6 mps 767 mmHg 39%
    01:00 +11°C° 0 mm 6 mps 767 mmHg 40%
    02:00 +12°C° 0 mm 5 mps 767 mmHg 41%
    03:00 +10°C° 0 mm 5 mps 767 mmHg 43%
    04:00 +10°C° 0 mm 5 mps 766 mmHg 44%
    05:00 +10°C° 0 mm 5 mps 766 mmHg 42%
    06:00 +12°C° 0 mm 5 mps 766 mmHg 41%
    07:00 +13°C° 0 mm 5 mps 766 mmHg 40%
    08:00 +15°C° 0 mm 5 mps 766 mmHg 34%
    09:00 +17°C° 0 mm 5 mps 765 mmHg 27%
    10:00 +20°C° 0 mm 4 mps 765 mmHg 21%
    11:00 +21°C° 0 mm 5 mps 764 mmHg 19%
    12:00 +22°C° 0 mm 5 mps 764 mmHg 17%
    13:00 +23°C° 0 mm 5 mps 763 mmHg 15%
    14:00 +23°C° 0 mm 6 mps 763 mmHg 16%
    15:00 +23°C° 0 mm 6 mps 762 mmHg 16%
    16:00 +23°C° 0 mm 6 mps 762 mmHg 16%
    17:00 +21°C° 0 mm 6 mps 762 mmHg 19%
    18:00 +20°C° 0 mm 5 mps 762 mmHg 21%
    19:00 +17°C° 0 mm 5 mps 762 mmHg 24%
    20:00 +17°C° 0 mm 5 mps 761 mmHg 26%
    21:00 +16°C° 0 mm 5 mps 761 mmHg 28%
    22:00 +15°C° 0 mm 4 mps 761 mmHg 30%
    23:00 +15°C° 0 mm 4 mps 760 mmHg 31%

    28 September, Friday

    Time Temperature Precipitation Wind Pressure Humidity
    00:00 +15°C° 0 mm 4 mps 760 mmHg 31%
    01:00 +17°C° 0 mm 4 mps 760 mmHg 31%
    02:00 +15°C° 0 mm 4 mps 759 mmHg 31%
    03:00 +15°C° 0 mm 4 mps 759 mmHg 32%
    04:00 +15°C° 0 mm 4 mps 759 mmHg 32%
    05:00 +15°C° 0 mm 4 mps 759 mmHg 33%
    06:00 +17°C° 0 mm 3 mps 759 mmHg 33%
    07:00 +17°C° 0 mm 3 mps 759 mmHg 34%
    08:00 +19°C° 0 mm 3 mps 758 mmHg 33%
    09:00 +21°C° 0 mm 3 mps 758 mmHg 32%
    10:00 +23°C° 0 mm 2 mps 758 mmHg 31%
    11:00 +24°C° 0 mm 2 mps 758 mmHg 32%
    12:00 +25°C° 0 mm 2 mps 758 mmHg 33%
    13:00 +26°C° 0 mm 2 mps 758 mmHg 33%
    14:00 +25°C° 0 mm 2 mps 757 mmHg 38%
    15:00 +24°C° 0 mm 3 mps 757 mmHg 42%
    16:00 +22°C° 0 mm 3 mps 757 mmHg 47%
    17:00 +21°C° 0 mm 3 mps 757 mmHg 52%
    18:00 +20°C° 0 mm 2 mps 758 mmHg 58%
    19:00 +19°C° 0 mm 2 mps 758 mmHg 63%
    20:00 +18°C° 0 mm 2 mps 758 mmHg 66%
    21:00 +17°C° 0 mm 2 mps 758 mmHg 69%
    22:00 +17°C° 0 mm 2 mps 758 mmHg 72%
    23:00 +16°C° 0 mm 2 mps 758 mmHg 73%

    29 September, Saturday

    Time Temperature Precipitation Wind Pressure Humidity
    00:00 +16°C° 0 mm 2 mps 758 mmHg 73%
    01:00 +16°C° 0 mm 3 mps 758 mmHg 74%
    02:00 +16°C° 0 mm 3 mps 758 mmHg 74%
    03:00 +14°C° 0 mm 3 mps 757 mmHg 75%
    04:00 +14°C° 0 mm 3 mps 757 mmHg 75%
    05:00 +16°C° 0 mm 3 mps 757 mmHg 72%
    06:00 +17°C° 0 mm 2 mps 758 mmHg 70%
    07:00 +17°C° 0 mm 2 mps 758 mmHg 67%
    08:00 +20°C° 0 mm 2 mps 758 mmHg 59%
    09:00 +23°C° 0 mm 1 mps 758 mmHg 50%
    10:00 +25°C° 0 mm 1 mps 758 mmHg 42%
    11:00 +26°C° 0 mm 2 mps 758 mmHg 41%
    12:00 +26°C° 0 mm 2 mps 758 mmHg 40%
    13:00 +27°C° 0 mm 3 mps 757 mmHg 39%
    14:00 +26°C° 0 mm 3 mps 757 mmHg 41%
    15:00 +26°C° 0 mm 4 mps 757 mmHg 43%
    16:00 +25°C° 0 mm 4 mps 757 mmHg 44%
    17:00 +23°C° 0 mm 4 mps 758 mmHg 48%
    18:00 +22°C° 0 mm 4 mps 758 mmHg 51%
    19:00 +20°C° 0 mm 4 mps 758 mmHg 54%
    20:00 +20°C° 0 mm 3 mps 759 mmHg 55%
    21:00 +19°C° 0 mm 3 mps 759 mmHg 56%
    22:00 +19°C° 0 mm 3 mps 759 mmHg 57%
    23:00 +19°C° 0 mm 3 mps 759 mmHg 57%

    30 September, Sunday

    Time Temperature Precipitation Wind Pressure Humidity
    00:00 +18°C° 0 mm 2 mps 759 mmHg 57%
    01:00 +18°C° 0 mm 2 mps 759 mmHg 58%
    02:00 +18°C° 0 mm 2 mps 759 mmHg 57%
    03:00 +18°C° 0 mm 2 mps 759 mmHg 57%
    04:00 +17°C° 0 mm 2 mps 759 mmHg 56%
    05:00 +18°C° 0 mm 2 mps 760 mmHg 54%
    06:00 +19°C° 0 mm 2 mps 760 mmHg 51%
    07:00 +19°C° 0 mm 2 mps 760 mmHg 48%
    08:00 +23°C° 0 mm 2 mps 760 mmHg 43%
    09:00 +25°C° 0 mm 2 mps 760 mmHg 37%
    10:00 +27°C° 0 mm 2 mps 760 mmHg 32%
    11:00 +27°C° 0 mm 2 mps 760 mmHg 33%
    12:00 +28°C° 0 mm 2 mps 760 mmHg 33%
    13:00 +28°C° 0 mm 2 mps 760 mmHg 34%
    14:00 +27°C° 0 mm 2 mps 760 mmHg 37%
    15:00 +27°C° 0 mm 1 mps 760 mmHg 41%
    16:00 +26°C° 0 mm 1 mps 759 mmHg 44%
    17:00 +25°C° 0.1 mm 1 mps 760 mmHg 50%
    18:00 +23°C° 0.1 mm 1 mps 760 mmHg 55%
    19:00 +22°C° 0.1 mm 1 mps 760 mmHg 61%
    20:00 +22°C° 0 mm 1 mps 760 mmHg 61%
    21:00 +21°C° 0 mm 1 mps 760 mmHg 62%
    22:00 +21°C° 0 mm 1 mps 760 mmHg 63%
    23:00 +21°C° 0.1 mm 1 mps 760 mmHg 63%
    Show more